Overview Statistics Trail Chart Weather Telemetry Raw packets
 

This is the latest recevied weather packets stored in our database for station/object R2AKT-13. If no packets are shown the sender has not sent any weather packets the latest 10 day(s).

<< 36 37 38 39 40 41 42 >>
Time Temp. Humidity Pressure Rain* Wind** Luminosity Snow
1788217296 15° C 79% 993.5 hPa - 2.24 m/s, 176° - -
1788216701 15° C 79% 993.5 hPa - 1.79 m/s, 176° - -
1788216141 15.56° C 79% 993.5 hPa - 1.34 m/s, 184° - -
1788215591 15.56° C 79% 993.4 hPa - 1.79 m/s, 179° - -
1788215106 15.56° C 78% 993.5 hPa - 1.34 m/s, 182° - -
1788214596 15.56° C 78% 993.5 hPa - 1.34 m/s, 180° - -
1788213998 15° C 79% 993.6 hPa - 0.89 m/s, 178° - -
1788213511 15° C 79% 993.6 hPa - 1.34 m/s, 186° - -
1788213006 15° C 80% 993.6 hPa - 1.34 m/s, 184° - -
1788212446 15° C 79% 993.5 hPa - 0.89 m/s, 189° - -
1788211891 15° C 80% 993.7 hPa - 0.89 m/s, 196° - -
1788211326 15° C 80% 993.6 hPa - 1.34 m/s, 178° - -
1788210781 15° C 80% 993.5 hPa - 1.34 m/s, 181° - -
1788210256 15° C 80% 993.5 hPa - 0.89 m/s, 177° - -
1788209656 15.56° C 78% 993.5 hPa - 1.34 m/s, 185° - -
1788209161 15° C 79% 993.5 hPa - 0.89 m/s, 187° - -
1788208621 15° C 79% 993.6 hPa - 0.89 m/s, 188° - -
1788208031 15.56° C 78% 993.4 hPa - 0.89 m/s, 178° - -
1788207506 15.56° C 78% 993.6 hPa - 0.45 m/s, 202° - -
1788206981 15.56° C 78% 993.6 hPa - 0.89 m/s, 181° - -
1788206431 15.56° C 77% 993.6 hPa - 0.45 m/s, 183° - -
1788205851 15.56° C 77% 993.6 hPa - 0.45 m/s, 196° - -
1788205291 15.56° C 77% 993.6 hPa - 0.89 m/s, 181° - -
1788204811 15.56° C 77% 993.6 hPa - 0.89 m/s, 180° - -
1788204251 15.56° C 77% 993.5 hPa - 0.45 m/s, 180° - -

* Rain since midnight (hover to see other rain measurements)
** Current wind speed in m/s (hover to see current wind gust speed)